Погода в Сойгине

Россия / Чувашская Республика     54°47′12″N   47°04′34″E
темп.,
°C
ветер,
м/с
пор.,
м/с
влажн.,
%
обл.,
%
осадки,
мм/ч
давл.,
гПа
погр.,
м
17 октября, вс
вс1700:00+7ююз41257100 0.0 1018473
03:00+6ююз4126175 0.0 1017432
06:00+7ююз41259100 0.0 1017542
09:00+9юз4105748 0.0 1017445
12:00+12юз585170 0.0 10161242
15:00+12юз485169 0.0 10151400
18:00+9ююз3973100 0.0 1015351
21:00+7ююз3885100 0.0 1015245
18 октября, пн
пн1800:00+8ююз2778100 0.0 1014242
03:00+8ююз2674100 0.0 1013243
06:00+7ююз2476100 0.0 1012135
09:00+9зюз2570100 0.0 1011487
12:00+11зюз465453 0.0 10101220
15:00+10зюз5852100 0.0 10091649
18:00+9зюз4851100 0.0 10091340
21:00+7зюз4105278 0.0 1009525
19 октября, вт
вт1900:00+5зсз3878100 0.1 1010573
03:00+3зсз2680100 0.1 1011354
06:00+2з1384100 0.0 101287
09:00+4з3573100 0.0 1012452
12:00+6з3559100 0.0 10121193
15:00+6зсз3457100 0.1 10111220
18:00+4сз2567100 0.0 1013851
21:00+3зсз246494 0.0 1013155
20 октября, ср
ср2000:00+1сз258399 0.1 1013184
03:00+1сз3689100 0.2 1014389
06:00+1ссз4676100 0.1 1015787
09:00+2ссз4668100 0.1 1016941
12:00+3сз4663100 0.1 10161187
15:00+4ссз475793 0.1 10171404
18:00+1зсз276981 0.0 1019204
21:00−1зсз387857 0.0 1020243
21 октября, чт
чт2100:00−2зсз23885 0.0 102176
03:00−3з22925 0.0 102036
06:00−3ююз269094 0.0 1020154
09:000ююз41071100 0.0 1018457
12:00+4ююз51247100 0.0 1014741
15:00+3ююз61479100 0.2 1011805
18:00+3юз61690100 1.8 1008637
21:00+6юз61685100 2.6 1006748